STARLINK-31848, 59784

Orbit data source: Space-Track

STARLINK-31848, 59784 is a payload satellite owned by SpaceX/Seattle (US) in LEO that was launched on Sat, 18 May 2024 UTC via an FALCON 9 launch vehicle from the Air Force Eastern Test Range (AFETR). Payload-class satellites include a variety of spacecraft equipped with specific instruments for various scientific and technological missions. These include communications satellites like Starlink; space stations such as the ISS; scientific satellites like the Hubble; Earth observation satellites from companies like Planet Labs, Umbra, and HawkEye 360; GPS; miniature CubeSats for education and research; and military/defense satellites.

Loading next visibility...
Identifier
59784, 2024-093C
Orbit
LEO
Country
Flag of USUS
Related business
Manufacturer
SpaceX/Seattle
Mission
Operational Commercial Communications
Bus & Motor
STARLINK V2M, Unknown motor
Mass
730 kg wet, ~700 kg dry
Launch date (UTC)
2024-05-18 (2 years ago)
Launch vehicle
FALCON 9
Launch site
Air Force Eastern Test Range (AFETR)
Object type
Payload
Rocket body
Debris
Shape & HBR
Box + 2 Pan, 17.7 m
Radar Cross Section
33.884 m², Large (>1 m²)

Expand to show TLE details & history
Last TLE update: 22 hours ago

TLE from 22 hours ago
0 STARLINK-31848
1 59784U 24093C   25347.95474200  .00000492  00000-0  27419-4 0  9995
2 59784  43.0026 329.6009 0001957 270.1270  89.9357 15.27569375 89626
Epoch: 2025-12-13T22:54Z
TLE epoch observation values (Epoch: 2025-12-13T22:54:49.708Z)
Latitude
-0.00006°
Longitude
-96.98088°
Altitude
482.855 km
Speed
7.626 km/s
True Right ascension
21h 58m 24s
True Declination
0° 00' 00"
Sunlit
Object was in daylight at epoch
Visualization orbit readout
Latitude
Unknown
Longitude
Unknown
Altitude
Unknown
Speed
Unknown
Apparent Right ascension
Unknown
Apparent Declination
Unknown
Sunlit
N/A
Visualization observer readout
Local Sidereal Time
19:00:13
Azimuth
Unknown
Elevation
Unknown
Doppler factor
Unknown
Orbital elements
Apogee altitude
486.369 km
Perigee altitude
483.683 km
Semi-major axis
6,863.163 km
Eccentricity
0.0002
Inclination
43.0026°
RAAN
329.6009°
Arg. of periapsis
270.127°
True anomaly
89.95813°
Mean anomaly
89.9357°
Eccentric anomaly
89.94691°
Mean motion
3.8173 °/min
Orbital period
94.31 mins
BSTAR
0.000027419
Loading maneuver chart data...
Computing Atmospheric mass density...
Loading historical data...
Loading historical data...
Loading historical data...
Loading historical data...
Loading historical data...
Loading historical data...
Loading historical data...

Documentation

Showing up to 5 results
|